Trang, Thailand

7:27 AM ICT on February 07, 2016 (GMT +0700)
Trang

Weather History for VTST - February, 2014

Change the Weather History Date:

Sunday, February 16, 2014

  Actual Average Record
Temperature  
Mean Temperature 80 °F -  
Max Temperature 91 °F 94 °F - ()
Min Temperature 69 °F 71 °F - ()
Cooling Degree Days 15    
Growing Degree Days 30 (Base 50)    
Moisture  
Dew Point 70 °F    
Average Humidity 64    
Maximum Humidity 100    
Minimum Humidity 41    
Precipitation  
Precipitation 0.00 in 0.05 in - ()
Sea Level Pressure  
Sea Level Pressure 29.83 in    
Wind  
Wind Speed 4 mph ()    
Max Wind Speed 15 mph    
Max Gust Speed -    
Visibility 6.1 miles    
Events      
T = Trace of Precipitation, MM = Missing Value Source: Averaged Metar Reports

Daily Weather History Graph

Daily Weather History Graph

Search for Another Location

Airport or City:

Trip Planner

Search our weather history database for the weather conditions in past years. The results will help you decide how hot, cold, wet, or windy it might be!

Date:

Astronomy

Feb. 16, 2014 Rise Set
Actual Time 6:38 AM ICT 6:32 PM ICT
Civil Twilight 6:17 AM ICT 6:53 PM ICT
Nautical Twilight 5:52 AM ICT 7:18 PM ICT
Astronomical Twilight 5:28 AM ICT 7:43 PM ICT
Moon 7:32 PM ICT (2/16) 7:13 AM ICT (2/16)
Length of Visible Light 12h 36m
Length of Day
11h 53m
Full, 99% of the Moon is Illuminated
Feb 16
Full
Feb 23
Last Quarter
Mar 1
New
Mar 8
First Quarter
Mar 17
Full

Hourly Weather History & Observations

Time (ICT) Temp. Heat Index Dew Point Humidity Pressure Visibility Wind Dir Wind Speed Gust Speed Precip Events Conditions
1:00 AM 74 °F - 71 °F 88% 29.84 in 6 mi Calm Calm - -   Scattered Clouds
4:00 AM 72 °F - 70 °F 91% 29.79 in 5 mi Calm Calm - -   Mist
7:00 AM 71 °F - 69 °F 92% 29.85 in 3 mi Calm Calm - -   Mist
7:00 AM 69.8 °F - 69.8 °F 100% 29.83 in 3.1 mi Calm Calm - N/A   Scattered Clouds
8:00 AM 78.8 °F - 71.6 °F 78% 29.86 in 5.0 mi Calm Calm - N/A   Partly Cloudy
9:00 AM 84.2 °F 88.4 °F 69.8 °F 62% 29.86 in 6.2 mi Calm Calm - N/A   Partly Cloudy
10:00 AM 88 °F - 70 °F 46% 29.90 in 7 mi Calm Calm - -   Scattered Clouds
10:00 AM 87.8 °F 91.4 °F 68.0 °F 52% 29.86 in 6.2 mi Calm Calm - N/A   Partly Cloudy
11:00 AM 87.8 °F 93.8 °F 71.6 °F 58% 29.86 in 6.2 mi ENE 13.8 mph - N/A   Partly Cloudy
12:00 PM 89.6 °F 94.7 °F 69.8 °F 52% 29.83 in 6.2 mi East 11.5 mph - N/A   Partly Cloudy
1:00 PM 89 °F - 72 °F 49% 29.86 in 9 mi ENE 11.5 mph - -   Scattered Clouds
1:00 PM 89.6 °F 96.2 °F 71.6 °F 55% 29.83 in 6.2 mi NE 11.5 mph - N/A   Scattered Clouds
2:00 PM 89.6 °F 96.2 °F 71.6 °F 55% 29.80 in 6.2 mi ENE 13.8 mph - N/A   Scattered Clouds
3:00 PM 87.8 °F 92.6 °F 69.8 °F 55% 29.77 in 6.2 mi ENE 13.8 mph - N/A   Partly Cloudy
4:00 PM 89 °F - 68 °F 41% 29.80 in 9 mi NE 13.8 mph - -   Scattered Clouds
4:00 PM 87.8 °F 92.6 °F 69.8 °F 55% 29.77 in 6.2 mi ENE 12.7 mph - N/A   Partly Cloudy
5:00 PM 86.0 °F 89.4 °F 68.0 °F 55% 29.77 in 6.2 mi ENE 15.0 mph - N/A   Partly Cloudy
6:00 PM 84.2 °F 88.4 °F 69.8 °F 62% 29.80 in 6.2 mi NE 11.5 mph - N/A   Partly Cloudy
7:00 PM 82 °F - 69 °F 56% 29.84 in 7 mi NE 5.8 mph - -   Scattered Clouds
10:00 PM 79 °F - 71 °F 69% 29.90 in 6 mi ENE 5.8 mph - -   Scattered Clouds